This is the latest recevied weather packets stored in our database for station/object W1REE. If no packets are shown the sender has not sent any weather packets the latest 10 day(s).
| Time | Temp. | Humidity | Pressure | Rain* | Wind** | Luminosity | Snow |
|---|---|---|---|---|---|---|---|
| 1778111297 | 5.56° C | 65% | 1020.7 hPa | 0 mm | - | 306 W/m² | - |
| 1778110995 | 5.56° C | 67% | 1020.7 hPa | 0 mm | - | 284 W/m² | - |
| 1778110692 | 5° C | 67% | 1020.8 hPa | 0 mm | - | 267 W/m² | - |
| 1778110388 | 5° C | 65% | 1020.7 hPa | 0 mm | - | 196 W/m² | - |
| 1778110085 | 5.56° C | 66% | 1020.7 hPa | 0 mm | - | 190 W/m² | - |
| 1778109780 | 5° C | 61% | 1020.7 hPa | 0 mm | - | 196 W/m² | - |
| 1778109477 | 5° C | 62% | 1020.8 hPa | 0 mm | - | 199 W/m² | - |
| 1778109175 | 5° C | 61% | 1020.6 hPa | 0 mm | - | 415 W/m² | - |
| 1778108873 | 5° C | 60% | 1020.7 hPa | 0 mm | - | 295 W/m² | - |
| 1778108569 | 4.44° C | 63% | 1020.7 hPa | 0 mm | - | 234 W/m² | - |
| 1778108265 | 5° C | 60% | 1020.7 hPa | 0 mm | - | 289 W/m² | - |
| 1778107963 | 5° C | 60% | 1020.7 hPa | 0 mm | - | 248 W/m² | - |
| 1778107659 | 5° C | 57% | 1020.5 hPa | 0 mm | - | 329 W/m² | - |
| 1778107357 | 5° C | 57% | 1020.7 hPa | 0 mm | - | 256 W/m² | - |
| 1778107053 | 5.56° C | 60% | 1020.7 hPa | 0 mm | - | 656 W/m² | - |
| 1778106748 | 5.56° C | 61% | 1020.6 hPa | 0 mm | - | 289 W/m² | - |
| 1778106445 | 4.44° C | 71% | 1020.6 hPa | 0 mm | - | 419 W/m² | - |
| 1778106141 | 3.89° C | 66% | 1020.6 hPa | 0 mm | - | 654 W/m² | - |
| 1778105839 | 3.89° C | 72% | 1020.7 hPa | 0 mm | - | 294 W/m² | - |
| 1778105537 | 3.33° C | 69% | 1020.6 hPa | 0 mm | - | 256 W/m² | - |
| 1778105234 | 3.33° C | 68% | 1020.8 hPa | 0 mm | - | 216 W/m² | - |
| 1778104928 | 2.78° C | 69% | 1021 hPa | 0 mm | - | 165 W/m² | - |
| 1778104625 | 2.78° C | 69% | 1021 hPa | 0 mm | - | 121 W/m² | - |
| 1778104321 | 2.78° C | 69% | 1021 hPa | 0 mm | - | 97 W/m² | - |
| 1778104018 | 2.78° C | 72% | 1021.2 hPa | 0 mm | - | 86 W/m² | - |
* Rain latest hour (hover to see other rain measurements)
** Current wind speed in m/s (hover to see current wind gust speed)